Weather History for LKMT - December, 2012

Change the Weather History Date:

Wednesday, December 5, 2012

  Actual Average Record
Temperature  
Mean Temperature 29 °F -  
Max Temperature 35 °F 36 °F - ()
Min Temperature 23 °F 25 °F - ()
Degree Days  
Heating Degree Days 36    
Moisture  
Dew Point 26 °F    
Average Humidity 89    
Maximum Humidity 100    
Minimum Humidity 76    
Precipitation  
Precipitation 0.00 in 0.04 in - ()
Sea Level Pressure  
Sea Level Pressure 29.54 in    
Wind  
Wind Speed 8 mph ()    
Max Wind Speed 15 mph    
Max Gust Speed -    
Visibility 6.7 miles    
Events      
T = Trace of Precipitation, MM = Missing Value Source: Averaged Metar Reports

Daily Weather History Graph

Daily Weather History Graph

Search for Another Location

Airport or City:

Trip Planner

Search our weather history database for the weather conditions in past years. The results will help you decide how hot, cold, wet, or windy it might be!

Date:

Astronomy

Dec. 05, 2012 Rise Set
Actual Time 7:28 AM CET 3:48 PM CET
Civil Twilight 6:50 AM CET 4:25 PM CET
Nautical Twilight 6:10 AM CET 5:06 PM CET
Astronomical Twilight 5:31 AM CET 5:45 PM CET
Moon 10:46 PM CET (12/5) 11:18 AM CET (12/5)
Length of Visible Light 9h 34m
Length of Day
8h 19m
Waning Gibbous, 62% of the Moon is Illuminated
Dec 5
Waning Gibbous
Dec 6
Last Quarter
Dec 13
New
Dec 20
First Quarter
Dec 28
Full

Hourly Weather History & Observations

Time (CET) Temp. Windchill Dew Point Humidity Pressure Visibility Wind Dir Wind Speed Gust Speed Precip Events Conditions
12:00 AM 32.0 °F 22.5 °F 30.2 °F 93% 29.47 in 6.2 mi SW 12.7 mph - N/A   Scattered Clouds
12:30 AM 30.2 °F 21.3 °F 28.4 °F 93% 29.47 in 6.2 mi SW 10.4 mph - N/A   Scattered Clouds
1:00 AM 30 °F - 29 °F 92% 29.54 in 6 mi WSW 11.2 mph - -   Partly Cloudy
1:00 AM 30.2 °F 21.3 °F 28.4 °F 93% 29.47 in 6.2 mi SW 10.4 mph - N/A   Scattered Clouds
1:30 AM 30.2 °F 23.4 °F 28.4 °F 93% 29.47 in 6.2 mi SW 6.9 mph - N/A   Partly Cloudy
2:00 AM 26.6 °F 19.1 °F 26.6 °F 100% 29.47 in 6.2 mi SW 6.9 mph - N/A   Partly Cloudy
2:30 AM 28.4 °F 24.6 °F 28.4 °F 100% 29.47 in 6.2 mi West 3.5 mph - N/A   Partly Cloudy
3:00 AM 28.4 °F 23.3 °F 26.6 °F 93% 29.47 in 6.2 mi SW 4.6 mph - N/A   Partly Cloudy
3:30 AM 28.4 °F 23.3 °F 26.6 °F 93% 29.47 in - South 4.6 mph - N/A   Clear
4:00 AM 26.6 °F - 24.8 °F 93% 29.47 in 6.2 mi WSW 2.3 mph - N/A   Partly Cloudy
4:30 AM 30.2 °F 21.3 °F 28.4 °F 93% 29.44 in 6.2 mi SW 10.4 mph - N/A   Scattered Clouds
5:00 AM 28.4 °F 20.4 °F 26.6 °F 93% 29.44 in 6.2 mi SW 8.1 mph - N/A   Mostly Cloudy
5:30 AM 32.0 °F 23.0 °F 30.2 °F 93% 29.44 in 6.2 mi SW 11.5 mph - N/A   Mostly Cloudy
6:00 AM 30.2 °F 20.8 °F 28.4 °F 93% 29.47 in - SW 11.5 mph - N/A   Clear
6:30 AM 26.6 °F 17.5 °F 24.8 °F 93% 29.47 in 6.2 mi WSW 9.2 mph - N/A   Partly Cloudy
7:00 AM 32 °F - 29 °F 85% 29.52 in 11 mi SW 13.4 mph - -   Scattered Clouds
7:00 AM 32.0 °F 22.5 °F 30.2 °F 93% 29.47 in 6.2 mi SW 12.7 mph - N/A   Scattered Clouds
7:30 AM 30.2 °F 20.2 °F 26.6 °F 86% 29.47 in 6.2 mi SW 12.7 mph - N/A   Partly Cloudy
8:00 AM 26.6 °F 16.2 °F 24.8 °F 93% 29.47 in 6.2 mi SW 11.5 mph - N/A   Partly Cloudy
8:30 AM 28.4 °F 19.7 °F 24.8 °F 86% 29.47 in 6.2 mi WSW 9.2 mph - N/A   Partly Cloudy
9:00 AM 30.2 °F 22.6 °F 26.6 °F 86% 29.50 in - WSW 8.1 mph - N/A   Clear
9:30 AM 30.2 °F 22.6 °F 26.6 °F 86% 29.50 in - SW 8.1 mph - N/A   Clear
10:00 AM 33.8 °F 25.3 °F 28.4 °F 81% 29.50 in - SW 11.5 mph - N/A   Clear
10:30 AM 33.8 °F 25.8 °F 28.4 °F 81% 29.50 in - WSW 10.4 mph - N/A   Clear
11:00 AM 33.8 °F 25.3 °F 28.4 °F 81% 29.50 in 6.2 mi SW 11.5 mph - N/A   Partly Cloudy
11:30 AM 33.8 °F 26.4 °F 28.4 °F 81% 29.50 in 6.2 mi SW 9.2 mph - N/A   Partly Cloudy
12:00 PM 33.8 °F 24.8 °F 28.4 °F 81% 29.50 in 6.2 mi SW 12.7 mph - N/A   Partly Cloudy
12:30 PM 33.8 °F 24.3 °F 28.4 °F 81% 29.53 in 6.2 mi SW 13.8 mph - N/A   Partly Cloudy
1:00 PM 34 °F - 29 °F 76% 29.58 in 12 mi SW 13.4 mph - -   Scattered Clouds
1:00 PM 33.8 °F 24.8 °F 30.2 °F 87% 29.53 in 6.2 mi SW 12.7 mph - N/A   Partly Cloudy
1:30 PM 33.8 °F 23.9 °F 30.2 °F 87% 29.53 in 6.2 mi SW 15.0 mph - N/A   Partly Cloudy
2:00 PM 33.8 °F 24.8 °F 30.2 °F 87% 29.53 in 6.2 mi SW 12.7 mph - N/A   Partly Cloudy
3:30 PM 32.0 °F 22.1 °F 28.4 °F 87% 29.56 in 6.2 mi SW 13.8 mph - N/A   Partly Cloudy
4:00 PM 30.2 °F 20.2 °F 26.6 °F 86% 29.56 in - SW 12.7 mph - N/A   Clear
4:30 PM 26.6 °F 17.5 °F 23.0 °F 86% 29.59 in - SW 9.2 mph - N/A   Clear
5:00 PM 28.4 °F 20.4 °F 24.8 °F 86% 29.59 in - SW 8.1 mph - N/A   Clear
5:30 PM 30.2 °F - 24.8 °F 80% 29.62 in - Variable 1.2 mph - N/A   Clear
6:00 PM 26.6 °F 18.2 °F 23.0 °F 86% 29.62 in - SW 8.1 mph - N/A   Clear
6:30 PM 26.6 °F 18.2 °F 24.8 °F 93% 29.62 in - SW 8.1 mph - N/A   Clear
7:00 PM 28 °F - 25 °F 85% 29.69 in 11 mi SSW 4.5 mph - -   Scattered Clouds
7:00 PM 28.4 °F 23.3 °F 26.6 °F 93% 29.62 in - SSW 4.6 mph - N/A   Clear
7:30 PM 24.8 °F 19.1 °F 23.0 °F 93% 29.62 in - SW 4.6 mph - N/A   Clear
8:00 PM 24.8 °F 16.1 °F 23.0 °F 93% 29.65 in - WSW 8.1 mph - N/A   Clear
8:30 PM 23.0 °F 17.0 °F 21.2 °F 93% 29.65 in - SW 4.6 mph - N/A   Clear
9:00 PM 24.8 °F 19.1 °F 23.0 °F 93% 29.65 in - South 4.6 mph - N/A   Clear
9:30 PM 23.0 °F 15.8 °F 21.2 °F 93% 29.65 in 6.2 mi WSW 5.8 mph - N/A   Scattered Clouds
10:00 PM 23.0 °F 17.0 °F 21.2 °F 93% 29.68 in 6.2 mi SW 4.6 mph - N/A   Scattered Clouds
10:30 PM 24.8 °F 19.1 °F 21.2 °F 86% 29.68 in 6.2 mi SW 4.6 mph - N/A   Scattered Clouds
11:00 PM 24.8 °F 20.5 °F 23.0 °F 93% 29.68 in 6.2 mi SSW 3.5 mph - N/A   Mostly Cloudy
11:30 PM 24.8 °F 20.5 °F 23.0 °F 93% 29.68 in 6.2 mi South 3.5 mph - N/A   Mostly Cloudy